Lid_Strength_Index
2 2 2 2 3 2 2 2 2 1 1 1 0 0 0 1 1 4 7 4 3 1 0 5 8 7 8 8 7 7 13 13 11 10 10 7 8 5 6 7 7 7 6 4 3
2 2 2 2 2 3 3 2 2 2 1 1 1 1 0 1 4 6 3 -1 -1 -1 6 9 9 9 11 10 8 10 14 12 8 8 8 7 7 6 6 6 7 7 6 6 4
2 2 2 2 2 2 2 3 2 2 2 2 1 1 1 1 6 5 -1 -2 -2 -1 5 7 8 10 12 11 9 10 12 9 8 7 6 7 7 6 7 8 6 7 6 6 7
2 2 2 2 2 2 2 2 2 2 2 2 2 1 1 3 10 5 -2 -3 -2 2 4 6 9 13 13 13 11 13 10 8 8 6 7 8 6 7 7 6 4 4 4 6 6
2 2 2 2 2 2 2 2 2 2 2 2 2 1 4 6 5 3 -3 -2 -0 2 4 7 9 12 14 12 12 13 11 10 9 8 8 6 7 7 7 5 4 4 4 4 5
3 3 2 2 3 2 2 2 2 2 2 2 1 1 5 9 3 2 0 2 3 5 6 7 9 9 11 12 12 11 10 11 10 10 10 10 10 8 7 5 5 5 4 4 4
3 3 2 3 3 3 2 2 2 2 2 1 0 2 6 8 4 5 3 6 5 5 6 6 7 8 10 11 10 10 12 11 10 9 9 9 11 11 8 7 7 5 5 5 4
3 3 3 3 3 2 2 2 2 2 2 1 0 3 8 2 3 6 6 7 5 5 5 6 7 9 11 10 10 12 14 16 11 10 9 8 12 9 8 9 8 7 5 5 5
3 3 3 3 3 3 2 2 2 1 1 0 4 6 7 1 5 5 7 6 5 5 6 5 7 10 10 13 16 15 17 16 13 10 10 11 13 10 8 8 9 9 7 5 5
3 3 3 3 3 3 2 2 2 2 2 1 2 6 5 6 5 5 5 5 6 6 7 7 10 12 13 14 17 15 16 14 14 11 11 12 13 11 9 9 9 10 10 8 5
2 3 3 3 3 3 5 6 8 7 5 6 6 5 4 5 4 6 5 6 6 8 12 10 13 15 13 12 11 12 13 14 12 10 12 12 12 11 10 10 10 9 9 9 9
3 3 3 3 3 3 7 8 7 7 10 5 5 4 3 5 8 6 5 8 9 12 11 13 15 11 10 10 11 12 14 14 12 10 11 12 12 10 10 10 10 10 9 9 8
3 3 3 3 3 6 8 6 5 6 11 7 6 6 6 6 8 7 6 8 10 12 12 14 12 9 10 11 12 13 14 13 13 11 11 12 13 12 10 10 9 9 9 8 8
3 3 3 3 6 7 7 5 6 6 13 9 9 8 7 7 9 5 5 7 10 12 11 12 10 10 11 12 11 14 10 11 12 13 17 12 18 14 12 12 10 10 9 9 8
3 3 3 4 8 8 5 5 6 6 19 9 9 6 7 9 8 7 5 7 11 11 12 13 12 12 12 10 9 11 9 11 11 13 15 15 17 15 13 13 12 10 10 9 8
3 3 3 5 7 6 5 6 6 13 18 11 8 9 10 8 8 7 7 7 8 11 11 11 9 9 9 8 9 8 11 12 13 15 18 15 15 16 15 13 12 10 8 7 6
3 3 4 4 7 4 6 7 14 17 9 11 11 9 10 10 9 9 10 11 13 15 15 11 11 8 7 10 9 10 13 18 19 18 18 12 15 15 11 10 9 8 8 7 7
4 4 4 4 4 4 7 10 17 11 11 9 9 9 11 9 9 9 10 12 10 11 14 15 16 10 7 10 12 12 12 18 21 21 19 12 16 14 9 8 7 7 7 7 7
5 6 5 4 3 6 8 14 14 11 9 10 9 11 11 9 9 10 11 10 9 10 13 14 13 8 8 8 10 12 14 11 15 14 17 15 13 10 8 8 8 7 6 7 7
8 7 5 4 5 7 10 12 11 8 8 8 12 10 12 11 11 12 11 8 8 8 9 11 15 10 8 8 9 11 9 16 16 21 22 17 15 14 12 11 9 8 8 7 6
7 7 4 4 5 8 13 12 9 7 7 8 10 11 11 11 11 12 10 8 7 8 8 11 13 12 10 12 13 12 14 14 14 16 21 21 17 11 11 10 10 9 8 7 6
9 10 4 5 10 11 12 9 7 7 6 7 8 9 10 10 11 11 11 9 6 7 11 10 12 15 13 9 8 10 12 13 17 18 17 16 16 9 10 9 8 8 7 6 6
11 9 5 5 13 13 10 9 8 8 8 8 9 8 9 11 13 10 9 7 7 8 10 10 14 17 15 13 11 12 11 11 12 13 17 19 16 8 9 9 8 8 7 6 7
11 13 10 9 10 12 12 11 10 6 7 8 8 8 10 11 10 11 10 7 6 7 6 7 12 15 17 14 13 14 12 11 12 16 16 15 14 12 10 10 9 8 7 7 6
12 13 12 15 12 12 11 10 10 10 8 9 10 10 11 14 12 12 10 9 7 6 8 10 15 13 12 11 11 12 12 12 13 12 16 13 14 12 10 9 8 7 7 7 7
14 14 13 14 12 11 10 12 11 10 11 11 11 9 11 13 12 13 11 11 11 9 10 10 14 13 14 12 11 12 11 11 11 11 12 12 13 9 8 7 7 7 7 7 7
11 11 13 14 14 15 13 12 11 10 10 9 10 11 11 11 9 9 9 9 9 10 11 12 13 14 16 12 13 16 13 12 11 10 11 14 12 9 9 8 8 7 7 7 7